Temp
-4 -5 -4 -5 -4 -5 -5 -5 -5 -5 -5 -5 -6 -5 -5 -6 -6 -7 -6 -6 -7 -6 -6 -6 -5 -5 -6 -5 -5 -5 -5 -5 -5 -5 -5 -5 -5 -5 -5 -5 -6 -6 -6 -6 -7 -7 -7 -7 -7
-4 -4 -5 -4 -6 -5 -5 -5 -5 -5 -5 -5 -5 -5 -6 -7 -7 -7 -7 -6 -6 -6 -6 -5 -5 -5 -5 -5 -5 -5 -5 -5 -5 -5 -5 -5 -5 -5 -6 -6 -6 -6 -6 -6 -6 -7 -7 -7 -7
-5 -5 -5 -5 -5 -4 -5 -5 -5 -5 -6 -5 -6 -5 -5 -6 -6 -7 -7 -7 -7 -6 -5 -6 -5 -5 -5 -5 -5 -5 -5 -5 -5 -5 -5 -5 -5 -5 -6 -6 -6 -6 -6 -6 -6 -6 -7 -7 -6
-5 -5 -5 -5 -5 -5 -5 -5 -5 -5 -5 -6 -5 -6 -6 -5 -6 -6 -6 -6 -6 -5 -5 -5 -5 -5 -5 -5 -5 -5 -5 -5 -5 -5 -5 -5 -6 -5 -5 -6 -6 -5 -6 -6 -5 -6 -7 -7 -7
-5 -4 -5 -5 -5 -5 -5 -5 -5 -5 -5 -5 -5 -5 -6 -6 -6 -6 -6 -6 -5 -5 -5 -5 -5 -5 -5 -5 -5 -5 -5 -5 -5 -5 -5 -6 -5 -5 -6 -6 -6 -5 -5 -5 -5 -6 -7 -7 -7
-5 -5 -5 -5 -5 -5 -5 -5 -5 -5 -5 -5 -5 -5 -5 -6 -6 -6 -6 -5 -6 -5 -5 -5 -5 -5 -5 -5 -5 -5 -5 -5 -5 -5 -5 -5 -5 -5 -6 -5 -6 -6 -5 -5 -5 -5 -6 -7 -6
-5 -6 -5 -5 -5 -5 -5 -5 -5 -5 -5 -5 -5 -5 -4 -5 -6 -5 -5 -5 -5 -6 -5 -5 -5 -5 -5 -5 -5 -5 -5 -5 -5 -5 -5 -5 -5 -6 -6 -6 -6 -5 -5 -5 -5 -5 -6 -6 -6
-5 -5 -5 -5 -5 -5 -5 -5 -4 -5 -5 -5 -5 -4 -4 -4 -5 -5 -5 -5 -5 -5 -5 -5 -5 -5 -5 -5 -5 -4 -5 -5 -5 -5 -5 -5 -5 -5 -6 -6 -6 -6 -5 -5 -5 -5 -5 -5 -6
-6 -6 -5 -5 -5 -5 -5 -5 -5 -5 -5 -5 -5 -5 -5 -4 -4 -5 -5 -5 -5 -5 -5 -5 -5 -5 -5 -5 -5 -5 -5 -5 -5 -5 -5 -5 -5 -5 -5 -6 -5 -5 -6 -5 -5 -5 -6 -5 -6
-6 -6 -5 -5 -5 -5 -5 -5 -5 -5 -5 -5 -5 -5 -5 -5 -4 -5 -5 -5 -5 -5 -5 -5 -5 -5 -5 -5 -5 -5 -5 -5 -5 -4 -5 -5 -5 -5 -5 -6 -5 -5 -5 -5 -5 -5 -5 -5 -6
-6 -6 -6 -5 -5 -5 -5 -5 -5 -5 -5 -5 -5 -5 -5 -5 -5 -5 -5 -5 -5 -5 -5 -5 -5 -5 -5 -5 -5 -5 -5 -5 -5 -5 -5 -5 -5 -5 -5 -5 -5 -5 -5 -6 -6 -5 -5 -5 -5
-6 -6 -6 -6 -6 -6 -6 -6 -6 -6 -6 -5 -5 -5 -5 -5 -5 -5 -5 -5 -5 -5 -5 -5 -5 -6 -5 -5 -5 -5 -5 -5 -5 -5 -5 -5 -5 -5 -5 -5 -5 -5 -5 -5 -6 -5 -5 -5 -5
-6 -6 -6 -6 -6 -6 -6 -6 -6 -6 -6 -6 -5 -5 -5 -5 -5 -5 -6 -6 -6 -6 -5 -5 -5 -5 -5 -5 -5 -5 -5 -5 -5 -5 -5 -5 -5 -5 -5 -5 -5 -5 -5 -5 -6 -5 -5 -5 -5
-6 -6 -6 -6 -6 -6 -6 -6 -6 -6 -6 -6 -6 -5 -5 -5 -5 -5 -6 -6 -6 -6 -6 -6 -5 -5 -5 -5 -5 -6 -6 -6 -6 -5 -6 -6 -6 -6 -5 -5 -6 -6 -6 -6 -6 -6 -5 -6 -6
-6 -5 -6 -6 -6 -7 -7 -7 -7 -6 -6 -6 -6 -6 -6 -5 -6 -6 -6 -5 -6 -6 -6 -6 -6 -6 -6 -5 -5 -5 -5 -5 -6 -6 -6 -6 -6 -6 -6 -6 -6 -6 -6 -6 -6 -6 -6 -6 -6
-6 -6 -5 -6 -6 -6 -6 -7 -7 -7 -6 -6 -6 -6 -6 -5 -6 -6 -6 -6 -6 -6 -6 -6 -6 -6 -6 -6 -5 -5 -5 -6 -6 -6 -6 -6 -6 -6 -6 -6 -6 -6 -6 -6 -6 -6 -6 -6 -6
-6 -6 -6 -6 -6 -6 -6 -7 -7 -7 -7 -6 -6 -6 -6 -6 -6 -6 -6 -6 -6 -6 -6 -7 -7 -6 -6 -6 -6 -5 -6 -6 -6 -6 -6 -6 -6 -6 -6 -6 -6 -6 -6 -5 -5 -5 -5 -6 -6
-6 -7 -6 -6 -6 -6 -7 -7 -7 -6 -6 -6 -6 -6 -6 -6 -6 -6 -6 -6 -6 -6 -7 -7 -7 -7 -6 -6 -6 -6 -6 -6 -6 -6 -6 -6 -6 -6 -6 -6 -6 -6 -6 -6 -6 -6 -6 -6 -6
-6 -6 -6 -6 -6 -6 -7 -7 -6 -6 -6 -6 -7 -6 -6 -6 -6 -6 -6 -6 -6 -6 -7 -7 -7 -7 -6 -6 -6 -6 -6 -6 -6 -6 -6 -6 -6 -6 -6 -6 -6 -6 -5 -5 -6 -6 -6 -6 -6
-5 -5 -6 -6 -6 -6 -6 -7 -7 -6 -6 -6 -6 -6 -6 -7 -7 -6 -6 -6 -6 -6 -6 -7 -7 -7 -6 -6 -6 -6 -6 -6 -6 -6 -6 -6 -6 -6 -6 -6 -6 -6 -6 -6 -6 -6 -6 -6 -6
-5 -6 -7 -6 -6 -7 -6 -7 -7 -7 -7 -7 -7 -7 -6 -6 -7 -7 -7 -7 -7 -7 -6 -7 -7 -7 -6 -6 -6 -6 -6 -6 -6 -6 -6 -7 -7 -6 -6 -6 -6 -6 -7 -7 -7 -7 -6 -6 -6
-7 -7 -5 -5 -6 -7 -6 -6 -7 -7 -7 -7 -6 -7 -7 -7 -7 -7 -7 -7 -7 -7 -7 -7 -7 -6 -6 -6 -6 -7 -7 -6 -6 -7 -7 -7 -7 -7 -6 -6 -6 -6 -7 -7 -7 -7 -6 -6 -6
-6 -5 -5 -5 -6 -6 -7 -6 -7 -7 -7 -7 -7 -7 -7 -7 -7 -7 -7 -7 -7 -7 -7 -7 -7 -7 -7 -7 -6 -7 -7 -7 -7 -7 -7 -7 -7 -6 -6 -6 -6 -6 -7 -6 -7 -6 -6 -6 -6
-5 -5 -5 -5 -7 -7 -7 -7 -6 -7 -7 -6 -6 -7 -7 -7 -8 -7 -7 -7 -7 -7 -7 -7 -7 -7 -7 -7 -7 -6 -6 -7 -7 -7 -7 -7 -6 -6 -6 -6 -6 -6 -6 -6 -6 -6 -6 -6 -6
-5 -5 -6 -7 -7 -6 -7 -7 -6 -7 -6 -6 -6 -7 -7 -7 -8 -8 -8 -7 -7 -7 -7 -7 -7 -7 -7 -7 -7 -7 -7 -7 -7 -7 -7 -7 -7 -7 -6 -6 -6 -6 -6 -6 -6 -6 -6 -6 -6
-6 -6 -7 -7 -6 -6 -7 -7 -7 -7 -7 -6 -6 -7 -7 -7 -7 -8 -8 -8 -8 -8 -8 -8 -7 -7 -7 -7 -7 -7 -7 -7 -7 -7 -7 -7 -7 -7 -7 -7 -6 -6 -6 -6 -6 -6 -6 -6 -6
-6 -5 -6 -7 -7 -7 -6 -7 -7 -7 -7 -7 -6 -7 -7 -7 -7 -8 -8 -8 -8 -8 -8 -8 -8 -7 -7 -8 -8 -7 -7 -7 -7 -6 -7 -7 -7 -7 -7 -7 -7 -7 -6 -6 -6 -6 -6 -6 -7
-6 -6 -6 -6 -7 -7 -6 -7 -7 -7 -7 -7 -6 -7 -7 -7 -8 -7 -7 -7 -8 -8 -8 -8 -8 -8 -7 -7 -7 -8 -7 -7 -7 -7 -7 -7 -7 -7 -7 -7 -7 -7 -7 -7 -7 -6 -7 -7 -7
-6 -6 -6 -7 -7 -7 -7 -7 -7 -7 -7 -6 -6 -7 -7 -8 -8 -8 -8 -8 -8 -8 -9 -8 -8 -8 -7 -8 -8 -8 -8 -8 -8 -7 -7 -7 -7 -7 -7 -7 -7 -8 -8 -7 -7 -7 -7 -7 -7
-6 -7 -8 -8 -8 -7 -7 -7 -7 -7 -7 -6 -7 -7 -7 -8 -8 -8 -8 -8 -8 -8 -8 -8 -8 -8 -9 -8 -7 -7 -10 -8 -8 -8 -8 -8 -8 -8 -8 -8 -8 -8 -8 -8 -8 -8 -8 -7 -7
Height
5907 5908 5907 5905 5907 5905 5905 5905 5905 5905 5905 5903 5901 5899 5899 5898 5899 5903 5900 5903 5903 5907 5910 5913 5914 5914 5915 5918 5921 5922 5922 5924 5924 5925 5924 5922 5923 5923 5922 5921 5921 5919 5917 5915 5913 5912 5911 5910 5909
5911 5910 5910 5909 5910 5910 5909 5909 5909 5909 5908 5907 5906 5904 5903 5902 5902 5905 5906 5906 5908 5911 5915 5918 5916 5916 5917 5921 5923 5924 5926 5926 5926 5929 5927 5925 5922 5925 5924 5922 5922 5922 5920 5919 5917 5915 5914 5913 5912
5914 5913 5914 5913 5913 5912 5911 5911 5911 5910 5911 5911 5910 5910 5909 5908 5908 5910 5908 5910 5913 5915 5917 5918 5918 5920 5921 5923 5926 5927 5929 5930 5927 5932 5930 5928 5927 5928 5927 5924 5924 5922 5922 5921 5919 5918 5916 5915 5914
5917 5917 5917 5917 5916 5916 5914 5913 5913 5913 5913 5914 5914 5913 5913 5912 5912 5914 5914 5915 5918 5917 5919 5920 5922 5923 5924 5926 5928 5930 5932 5931 5930 5934 5933 5930 5931 5931 5930 5926 5925 5924 5924 5923 5922 5921 5919 5918 5916
5919 5919 5919 5920 5919 5918 5917 5916 5916 5915 5916 5916 5916 5916 5917 5917 5918 5920 5919 5920 5920 5921 5923 5926 5925 5926 5927 5930 5929 5932 5933 5932 5933 5934 5934 5933 5933 5933 5932 5930 5928 5928 5926 5924 5925 5924 5921 5921 5919
5923 5922 5922 5922 5922 5921 5920 5920 5919 5918 5918 5919 5919 5920 5919 5920 5921 5920 5922 5923 5925 5925 5926 5928 5929 5928 5930 5931 5932 5933 5932 5934 5935 5935 5935 5935 5936 5936 5935 5933 5930 5931 5930 5928 5928 5927 5924 5923 5922
5928 5927 5926 5924 5924 5923 5923 5922 5921 5921 5921 5921 5921 5922 5922 5922 5924 5924 5926 5926 5927 5928 5929 5931 5931 5931 5932 5933 5935 5934 5934 5936 5936 5936 5937 5937 5938 5939 5938 5936 5933 5933 5933 5931 5931 5930 5927 5927 5925
5932 5931 5929 5928 5927 5926 5925 5925 5924 5924 5923 5923 5924 5924 5925 5925 5926 5928 5928 5928 5928 5931 5932 5933 5933 5934 5935 5936 5936 5935 5936 5938 5938 5939 5939 5938 5939 5940 5939 5937 5936 5934 5934 5934 5932 5932 5931 5929 5928
5935 5935 5932 5931 5929 5929 5927 5926 5926 5926 5925 5925 5926 5927 5927 5928 5929 5930 5930 5931 5931 5933 5935 5935 5934 5937 5937 5936 5937 5937 5938 5940 5941 5941 5941 5940 5941 5941 5940 5939 5937 5934 5935 5935 5934 5934 5934 5932 5930
5938 5937 5935 5933 5931 5930 5930 5929 5928 5929 5928 5928 5928 5928 5929 5929 5930 5930 5931 5932 5934 5935 5935 5935 5937 5936 5938 5938 5939 5938 5940 5940 5941 5941 5941 5941 5942 5941 5941 5941 5939 5938 5937 5937 5936 5936 5936 5936 5934
5940 5939 5937 5936 5934 5933 5932 5931 5930 5930 5930 5930 5930 5929 5930 5932 5932 5932 5933 5934 5936 5936 5938 5939 5938 5937 5939 5940 5939 5939 5940 5940 5940 5941 5941 5942 5943 5943 5942 5942 5940 5939 5938 5938 5938 5937 5937 5937 5937
5943 5941 5940 5938 5937 5935 5935 5934 5933 5932 5932 5931 5931 5931 5931 5932 5933 5934 5935 5935 5936 5937 5939 5939 5940 5940 5941 5940 5941 5941 5941 5940 5941 5942 5941 5943 5944 5944 5944 5943 5942 5940 5939 5939 5938 5938 5938 5938 5938
5944 5944 5943 5941 5940 5938 5938 5937 5936 5935 5935 5933 5933 5933 5932 5933 5934 5935 5935 5936 5937 5939 5939 5939 5940 5940 5941 5941 5942 5941 5941 5941 5942 5943 5943 5944 5944 5945 5945 5943 5942 5940 5940 5938 5938 5937 5937 5938 5938
5947 5946 5945 5944 5943 5942 5940 5939 5939 5938 5937 5936 5936 5935 5934 5935 5935 5935 5935 5936 5937 5938 5939 5940 5941 5941 5942 5942 5943 5942 5941 5942 5942 5943 5944 5944 5944 5945 5944 5944 5943 5941 5939 5938 5936 5936 5936 5937 5937
5949 5949 5948 5947 5945 5944 5942 5942 5940 5939 5938 5938 5938 5938 5937 5937 5937 5937 5936 5936 5936 5938 5939 5939 5940 5941 5942 5942 5942 5942 5942 5942 5942 5943 5944 5945 5946 5946 5945 5944 5944 5941 5939 5938 5936 5936 5936 5936 5936
5950 5951 5951 5949 5947 5946 5946 5944 5942 5940 5940 5940 5939 5939 5939 5939 5939 5939 5938 5937 5937 5936 5937 5937 5939 5940 5941 5941 5941 5942 5942 5941 5942 5943 5944 5945 5946 5946 5945 5945 5944 5942 5939 5938 5937 5937 5937 5936 5936
5951 5952 5952 5951 5949 5949 5949 5946 5944 5942 5941 5940 5940 5940 5940 5941 5941 5940 5939 5938 5938 5937 5936 5936 5937 5938 5938 5939 5941 5941 5942 5942 5942 5944 5945 5946 5946 5945 5945 5944 5944 5941 5939 5937 5937 5936 5936 5936 5937
5952 5953 5952 5952 5952 5951 5950 5948 5946 5945 5943 5942 5941 5941 5940 5940 5940 5940 5940 5939 5938 5937 5936 5936 5936 5937 5937 5938 5939 5940 5941 5942 5943 5945 5946 5946 5945 5945 5944 5944 5942 5940 5938 5938 5937 5936 5936 5936 5937
5951 5952 5952 5951 5951 5951 5951 5949 5949 5946 5944 5943 5942 5942 5941 5941 5941 5941 5940 5940 5940 5939 5937 5936 5936 5936 5937 5937 5938 5939 5940 5942 5943 5944 5945 5945 5945 5944 5944 5943 5940 5938 5937 5936 5935 5935 5935 5935 5936
5949 5951 5951 5951 5951 5952 5952 5951 5950 5949 5947 5945 5942 5942 5942 5942 5942 5942 5941 5940 5940 5940 5938 5937 5937 5936 5936 5937 5937 5938 5939 5940 5941 5943 5944 5944 5944 5944 5943 5942 5939 5937 5935 5933 5931 5932 5933 5934 5935
5948 5949 5949 5950 5951 5952 5953 5954 5951 5950 5948 5947 5945 5943 5942 5942 5941 5942 5941 5940 5939 5939 5938 5938 5938 5938 5938 5938 5938 5938 5939 5939 5940 5941 5942 5944 5944 5943 5942 5941 5938 5936 5932 5930 5929 5930 5932 5934 5935
5946 5946 5947 5947 5949 5953 5952 5958 5954 5951 5949 5946 5946 5945 5943 5942 5941 5942 5942 5942 5940 5939 5938 5938 5938 5938 5938 5938 5938 5939 5938 5938 5939 5940 5942 5943 5943 5942 5941 5939 5937 5935 5931 5928 5927 5929 5932 5934 5934
5941 5942 5944 5946 5948 5950 5951 5954 5953 5951 5950 5948 5946 5946 5945 5943 5941 5941 5942 5943 5942 5941 5940 5939 5938 5938 5938 5938 5938 5938 5938 5938 5938 5940 5940 5942 5942 5941 5940 5939 5938 5934 5929 5926 5925 5929 5931 5933 5934
5937 5940 5942 5944 5946 5950 5953 5952 5955 5952 5948 5947 5946 5945 5945 5944 5943 5943 5942 5942 5942 5941 5940 5939 5939 5938 5938 5937 5937 5937 5937 5937 5938 5939 5940 5940 5940 5939 5939 5939 5937 5934 5929 5925 5926 5930 5932 5933 5934
5936 5938 5941 5944 5946 5949 5946 5947 5953 5948 5947 5946 5944 5944 5944 5944 5943 5943 5942 5941 5940 5939 5939 5938 5937 5937 5937 5937 5936 5936 5936 5937 5937 5937 5938 5939 5938 5938 5938 5938 5937 5935 5931 5928 5930 5932 5933 5933 5934
5932 5936 5940 5942 5946 5948 5943 5944 5949 5945 5945 5944 5943 5943 5943 5943 5942 5942 5942 5941 5939 5938 5938 5938 5937 5936 5935 5936 5937 5936 5936 5936 5937 5937 5937 5937 5937 5937 5938 5937 5937 5936 5934 5933 5933 5933 5934 5934 5934
5928 5929 5936 5939 5939 5941 5944 5941 5942 5942 5943 5942 5941 5942 5941 5942 5942 5941 5941 5941 5939 5938 5937 5937 5936 5936 5935 5933 5933 5933 5934 5936 5937 5937 5936 5936 5937 5937 5938 5938 5937 5936 5936 5935 5934 5934 5934 5934 5933
5922 5926 5929 5931 5936 5937 5940 5937 5941 5940 5940 5940 5940 5940 5940 5940 5940 5939 5938 5939 5938 5937 5936 5935 5934 5931 5932 5934 5934 5934 5933 5931 5935 5936 5935 5936 5936 5937 5937 5937 5937 5937 5936 5935 5935 5934 5933 5933 5932
5918 5921 5925 5930 5932 5934 5936 5938 5937 5936 5937 5938 5938 5939 5939 5938 5937 5936 5936 5935 5936 5937 5936 5933 5930 5932 5934 5931 5924 5925 5931 5930 5931 5934 5936 5935 5935 5935 5935 5935 5936 5936 5934 5934 5933 5932 5931 5930 5929
5912 5916 5920 5923 5928 5927 5928 5931 5929 5931 5934 5936 5936 5937 5937 5938 5937 5936 5935 5934 5934 5934 5933 5931 5931 5931 5931 5928 5920 5904 5921 5929 5928 5931 5934 5934 5935 5935 5935 5935 5934 5933 5932 5931 5930 5928 5928 5927 5926
Wind_Speed
19 16 16 18 19 16 14 14 18 19 19 23 22 17 16 12 14 24 25 27 30 30 31 25 22 23 21 19 20 21 22 22 23 22 23 24 22 22 22 22 19 18 16 17 16 16 16 15 7
23 17 16 15 19 16 15 15 16 18 19 21 23 26 31 24 24 23 28 28 27 26 24 21 22 23 22 19 19 20 20 22 22 20 20 21 22 20 20 21 21 18 17 17 16 16 15 14 12
25 20 14 15 16 16 16 16 16 17 17 17 21 22 27 31 30 25 29 27 31 24 20 20 21 21 19 18 17 18 19 21 23 17 18 17 19 17 19 20 20 19 19 20 18 16 10 10 10
25 22 16 14 14 15 15 16 15 17 17 18 18 20 20 24 26 28 28 24 19 18 18 16 17 18 18 18 17 16 18 20 20 16 16 16 16 15 17 19 18 18 16 18 15 14 11 11 12
23 19 20 12 11 12 13 14 14 15 16 16 16 18 20 18 21 19 18 17 18 19 17 15 18 19 19 17 18 16 16 16 16 15 14 14 14 14 17 18 17 14 18 17 14 17 12 10 10
21 21 19 16 11 12 12 11 12 14 14 13 12 13 17 16 15 18 18 17 15 17 17 17 18 19 18 17 16 14 15 13 12 13 13 14 13 13 15 16 18 17 18 18 15 17 20 15 11
20 19 18 17 15 12 11 10 11 11 13 12 10 9 12 15 12 15 16 17 15 14 15 16 16 17 17 16 15 15 15 13 11 10 10 12 12 11 14 14 18 18 18 16 14 14 18 17 16
17 17 16 16 17 15 11 10 10 9 12 11 10 9 10 12 11 11 14 16 16 14 14 16 15 14 15 15 15 14 13 11 8 8 8 10 9 9 9 12 10 12 14 13 12 11 14 17 19
11 17 17 17 16 16 14 11 10 9 9 9 8 9 9 9 9 7 8 12 13 14 14 15 15 12 12 13 12 12 10 8 7 5 6 8 6 8 7 8 8 15 10 10 10 11 10 12 14
8 11 14 17 15 14 16 14 13 9 8 6 7 8 8 7 9 7 5 5 7 9 11 13 12 12 10 9 9 9 8 8 6 4 4 5 4 5 5 6 8 6 7 7 10 11 9 11 12
7 7 11 18 18 15 15 16 14 10 9 7 6 7 6 6 7 7 7 7 5 5 8 9 10 11 8 7 6 6 6 6 6 5 4 3 5 4 5 5 6 6 6 7 8 9 7 7 9
4 4 10 15 17 18 17 16 15 14 9 7 8 6 5 6 9 8 6 6 5 4 4 5 7 9 9 6 4 3 4 4 4 5 6 4 3 3 4 4 4 5 3 4 6 7 6 6 7
6 6 8 12 14 16 16 18 16 14 11 8 7 8 6 4 3 8 10 7 5 5 5 4 4 5 4 2 0 1 1 3 4 4 5 4 3 2 0 3 2 3 3 3 4 4 5 4 4
8 8 7 8 10 12 14 17 17 15 12 11 9 6 8 7 5 4 5 6 6 4 4 5 6 7 6 5 4 3 2 4 4 4 4 4 3 2 1 2 1 2 2 3 4 4 3 3 3
6 2 5 5 7 9 11 13 15 16 13 11 11 10 7 6 6 6 5 3 2 5 7 7 8 8 10 9 7 4 3 4 4 6 6 5 3 0 1 1 3 4 4 2 3 3 3 2 2
3 2 2 3 3 5 6 11 13 16 16 11 11 10 8 6 5 5 6 4 3 4 5 8 10 11 12 12 10 7 5 4 5 6 6 6 4 3 4 4 4 5 5 4 3 3 2 2 2
4 2 4 1 2 3 5 8 10 12 15 13 10 9 8 6 4 3 3 3 2 4 7 7 7 8 10 10 10 8 6 6 6 4 5 6 5 5 4 3 4 5 4 5 3 3 3 1 0
5 3 8 4 2 3 3 7 8 9 9 11 11 10 9 8 7 6 3 2 2 2 5 9 9 8 8 9 9 9 9 7 6 4 5 5 3 3 3 3 7 8 8 7 6 3 3 3 2
11 5 6 6 5 7 4 3 7 7 7 9 11 10 8 7 6 6 5 2 2 2 2 5 9 8 10 9 10 10 11 10 5 4 6 5 2 3 3 6 9 11 13 13 11 8 5 4 6
12 11 7 6 10 6 1 2 3 4 6 8 10 12 10 7 8 5 5 4 2 2 2 2 3 3 6 8 9 10 9 8 5 5 5 5 1 1 2 6 9 14 16 15 10 12 7 5 7
11 12 12 11 5 11 8 3 0 5 5 3 6 9 10 10 6 7 6 5 5 4 3 1 2 3 5 6 7 8 7 6 5 5 6 6 2 2 4 5 11 14 17 14 10 11 7 4 5
14 17 14 11 10 6 7 4 4 5 6 12 9 7 8 9 7 5 5 6 4 4 4 2 2 2 3 4 6 7 7 6 5 6 8 6 3 1 2 6 11 15 15 13 8 9 5 4 5
15 17 16 14 13 11 11 6 15 12 11 10 12 6 7 7 6 7 4 4 6 3 2 2 1 1 1 2 4 6 7 8 8 8 9 6 4 1 2 7 12 16 15 12 4 8 4 3 3
21 17 17 15 15 12 13 11 9 10 13 12 9 7 11 7 2 4 2 3 5 5 3 2 3 2 2 1 1 3 8 9 9 9 7 8 6 3 3 7 13 17 15 6 8 6 4 3 2
18 18 17 17 15 9 18 14 12 16 14 15 13 4 4 1 4 3 4 2 1 4 6 6 6 4 5 4 2 2 3 9 11 10 9 9 7 4 2 6 11 17 14 7 6 4 3 3 3
19 20 17 16 13 12 18 14 10 18 15 17 17 9 6 4 4 3 1 2 4 2 4 6 9 9 8 9 7 4 5 6 8 8 11 9 9 5 1 4 9 13 14 6 3 3 4 5 5
24 25 18 19 19 15 12 14 14 20 17 17 15 13 8 4 4 6 3 2 5 8 9 8 8 9 11 11 11 13 9 8 8 8 9 9 9 7 3 4 7 10 10 9 3 1 4 6 6
26 23 23 21 17 17 14 16 12 17 13 15 13 14 8 4 3 8 8 10 9 12 14 11 10 13 15 14 14 15 15 13 10 9 8 10 10 8 4 3 5 8 9 6 5 3 3 6 7
26 26 23 17 18 16 15 15 13 19 15 16 14 13 8 6 8 8 14 21 15 15 16 14 16 15 16 18 19 22 20 14 10 9 10 11 11 9 7 6 5 6 7 7 6 5 5 5 5
26 23 19 20 16 17 19 17 17 23 18 14 13 13 11 12 10 9 16 20 21 18 17 17 15 15 15 21 30 6 22 15 10 10 9 9 10 10 8 7 7 7 9 10 10 12 12 10 11
Wind_Direction
66 66 64 74 77 86 107 107 96 90 87 86 81 83 108 126 100 98 111 116 102 106 109 118 126 116 109 108 109 110 102 95 92 92 91 86 81 80 78 73 68 67 65 58 60 54 47 35 29
55 71 69 72 85 95 105 106 105 99 91 82 79 79 81 102 113 114 111 107 109 113 122 128 118 113 115 117 117 110 107 102 94 92 91 87 84 73 77 71 66 63 60 61 61 56 49 26 14
58 64 77 75 80 94 101 106 102 96 92 89 86 88 89 88 96 110 117 107 108 107 108 114 115 115 114 115 115 109 112 104 96 92 86 79 75 71 70 70 63 60 60 56 51 56 33 22 22
54 60 72 85 88 93 99 103 102 99 101 91 93 93 95 99 95 104 103 107 126 118 117 112 112 115 117 114 113 116 112 104 96 91 82 76 72 72 68 72 67 65 64 63 51 42 31 36 34
57 54 65 79 92 91 88 95 106 104 100 99 94 101 105 108 117 125 119 113 112 116 118 123 123 120 117 122 117 123 117 101 98 95 87 79 71 77 76 70 64 61 65 72 54 45 45 45 53
57 62 59 66 92 93 95 95 96 104 105 102 105 105 109 103 113 115 117 118 122 129 130 135 132 123 123 122 122 123 114 104 95 89 82 79 73 80 75 66 68 73 65 66 53 50 47 47 61
51 64 68 67 70 91 102 105 99 103 107 108 110 118 117 112 112 119 126 125 125 131 133 133 129 127 127 126 127 123 114 110 104 93 80 82 80 74 67 70 77 70 65 66 58 53 54 52 69
46 57 69 69 71 74 94 110 103 99 99 104 117 122 127 126 122 123 120 124 124 131 139 143 136 136 137 134 129 126 122 122 112 96 81 79 90 77 63 64 69 61 58 66 65 53 54 52 52
46 65 63 60 65 70 75 83 95 96 98 103 107 113 123 137 131 118 127 122 125 139 146 145 142 145 137 137 135 129 129 133 126 102 76 77 85 86 69 71 51 48 55 55 62 75 56 48 42
69 78 64 56 51 58 66 69 82 93 109 114 107 111 115 120 127 122 123 135 150 146 143 144 151 142 141 135 139 135 146 147 145 132 106 100 112 82 58 74 74 70 55 65 67 72 66 58 50
93 81 68 62 56 55 55 58 61 80 89 112 115 109 106 112 124 126 139 148 161 147 139 160 152 141 141 142 137 149 160 158 149 144 128 145 129 97 74 68 66 62 46 43 57 65 66 54 65
104 109 91 72 60 60 56 60 63 59 63 96 107 123 127 136 139 130 127 124 137 158 162 166 155 143 147 140 152 167 181 176 176 170 143 185 146 85 80 57 44 62 34 30 25 21 40 52 39
28 144 99 83 67 62 56 57 62 63 51 49 95 114 121 151 161 144 138 135 140 157 179 190 188 180 182 162 333 260 228 214 204 190 168 175 149 136 16 83 27 28 340 333 357 360 9 17 8
64 114 110 94 75 64 53 50 51 61 55 53 50 85 106 107 119 143 143 147 152 170 199 216 217 224 235 242 274 278 229 232 218 206 190 180 165 180 249 6 1 6 4 330 347 342 355 345 334
66 160 60 89 76 56 47 43 40 49 61 48 49 53 72 104 118 119 124 136 172 201 214 234 244 252 255 260 256 256 246 184 190 206 201 169 174 138 207 77 82 63 51 28 355 334 340 346 318
93 177 149 70 53 54 46 25 35 42 48 57 44 47 55 60 91 119 131 144 187 235 235 233 237 247 259 265 257 240 229 171 174 196 182 166 164 157 113 88 56 42 29 29 10 352 345 15 320
111 212 189 135 37 49 53 35 44 43 38 42 52 37 46 52 55 72 95 108 145 223 242 255 250 248 255 254 245 224 208 178 156 185 181 161 162 119 101 64 39 14 355 341 358 326 330 348 66
173 218 218 228 240 168 68 35 36 36 40 32 40 48 40 32 30 36 37 62 42 286 244 246 252 247 245 242 226 209 194 184 182 185 177 174 148 96 83 58 355 344 335 305 280 277 265 241 214
186 186 202 242 174 162 152 30 52 35 27 29 34 38 40 43 25 20 28 355 8 4 263 232 244 249 237 219 208 208 194 191 202 195 187 209 192 40 29 352 348 344 335 315 269 241 236 224 225
199 194 234 232 227 221 230 4 12 52 42 14 13 22 17 9 15 5 21 34 8 18 37 217 217 227 199 190 193 197 199 196 177 197 204 193 183 346 338 343 333 337 336 330 295 230 220 207 226
207 216 228 220 230 237 248 286 302 349 341 312 344 342 350 356 357 5 0 4 22 17 35 7 225 217 170 165 168 174 181 184 172 188 192 183 205 276 321 349 343 340 337 328 300 223 216 215 224
212 237 243 242 238 252 240 224 254 246 289 314 322 292 319 332 321 336 347 351 352 19 48 29 282 245 236 192 168 173 180 177 162 176 171 193 208 242 355 359 350 344 336 329 299 208 203 217 222
201 223 233 244 242 247 269 235 255 247 279 296 297 277 312 304 301 303 305 338 354 334 40 32 30 117 213 228 192 196 189 176 173 180 191 200 212 186 19 11 0 354 346 328 228 186 194 209 190
216 220 234 246 246 250 248 243 257 263 266 277 292 266 316 277 312 357 312 300 297 284 273 235 242 250 239 200 222 214 208 206 203 208 209 203 195 151 40 22 12 9 5 8 152 166 197 203 193
221 225 236 244 246 244 244 238 198 251 242 268 268 254 13 66 182 132 86 65 230 253 235 230 221 233 255 260 245 264 213 216 217 215 208 203 195 154 89 36 21 19 28 65 127 151 210 223 237
224 231 231 238 234 235 256 234 232 243 239 253 259 233 283 73 113 159 226 343 17 306 250 254 254 255 249 246 252 243 228 207 207 203 204 200 191 167 152 35 27 23 29 54 106 188 232 237 250
224 227 232 232 240 225 248 252 226 234 238 252 248 236 255 310 12 18 254 171 343 349 331 280 281 280 273 260 246 235 226 232 225 213 209 208 196 196 197 13 2 9 15 25 21 229 238 250 261
228 226 234 235 231 247 248 262 229 236 228 238 233 240 252 279 312 299 310 324 326 327 326 304 280 274 278 279 276 266 228 209 215 222 211 203 204 213 230 294 321 334 343 353 9 331 269 273 275
228 234 232 219 233 235 254 264 252 221 225 233 232 238 244 282 304 305 292 296 299 309 312 300 285 290 305 285 256 251 232 207 207 218 219 207 216 219 235 258 281 295 311 318 307 291 275 258 266
226 227 230 231 251 264 247 244 247 204 215 225 217 222 234 235 247 263 265 276 283 291 287 295 288 310 321 319 335 255 180 197 189 196 218 232 244 249 257 263 261 276 282 283 287 271 266 270 273